Location: El Chorro
(10.0985°N, 67.3542°W)
Time: 18:52:00
(UTC+00:00)

Ariane H10+ - Pass Details

Date: 15 November 2025
Orbit: 425 x 34937 km, 7.2° (Epoch: 06 December)

Event Time Altitude Azimuth Distance (km) Brightness Sun altitude
Rises 22:23:01 0° 271° (W) 8,691 10.0 -5.3°
Reaches altitude 10° 22:32:01 10° 268° (W) 4,809 8.6 -7.4°
Maximum altitude 22:40:53 53° 192° (SSW) 877 3.5 -9.5°
Drops below altitude 10° 22:43:50 10° 112° (ESE) 1,642 4.3 -10.2°
Enters shadow 22:44:02 - 111° (ESE) 1,735 4.4 -10.2°
